TIANMU-1 10

Last updated on Wed Sep 23 2026 00:03:10 GMT+0000 (Coordinated Universal Time)

1 57402U 23101D 26265.57612332 .00004166 00000+0 14243-3 0 9998 2 57402 97.2532 314.2960 0005745 134.7643 225.4067 15.30799537176539
UTC large
Height (km)
Speed (km/s)
/
Latitude / Longitude
Inclination (degrees)
Orbital Period (minutes)
Azimuth
Elevation
Range (km)
Doppler Factor

Next 0 passes for location: London (51.5072 / 0.1276)

No passes found over London.
TIANMU-1 10